Find FSKL5695-12

NORAD ID: 64886 Int'l Des: NNA 2025-155 Owner: RATEKS Country: RU operational
LEOCIRCULARRETROGRADESSO

Current View

Loading 3D Globe...

About FSKL5695-12

Description loading...

Upcoming Passes

Passes for default location (London). Set your location on the main map for personalized predictions.

Altitude History

Loading altitude history...

Two-Line Element Set

1 64886U 25155L 26149.55035206 .00037783 00000-0 93196-3 0 9997
2 64886 97.4452 120.0955 0005108 202.6653 157.4369 15.40433276 78066
Epoch: May 29, 2026 • Age: 16 hours

Current Status

Altitude 450.5 km
Velocity 7.64 km/s
Sub-Earth Point 10.34°N, 159.03°E
Launch Date Jul 25, 2025
Age 0.8 years
Type other

Technical Details

Classification Payload
Mass 3.00 kg
Dry Mass 3.00 kg
Total Mass 3.00 kg
Length 0.30 m
Diameter 0.10 m
Span 0.30 m
Shape Box
Manufacturer RATEKS
Bus Type Cubesat 3U
Phase Status In Orbit
Owner/State RATEKS/RU

Most Searched